This is the latest recevied weather packets stored in our database for station/object WP4NYS-13. If no packets are shown the sender has not sent any weather packets the latest 10 day(s).
| Time | Temp. | Humidity | Pressure | Rain* | Wind** | Luminosity | Snow |
|---|---|---|---|---|---|---|---|
| 1777141532 | 31.11° C | 37% | 1011.7 hPa | 0 mm | - | - | - |
| 1777141231 | 31.67° C | 37% | 1011.8 hPa | 0 mm | - | - | - |
| 1777140927 | 31.67° C | 34% | 1011.9 hPa | 0 mm | - | - | - |
| 1777140623 | 31.67° C | 36% | 1011.8 hPa | 0 mm | - | - | - |
| 1777140320 | 31.67° C | 36% | 1012 hPa | 0 mm | - | - | - |
| 1777140018 | 32.22° C | 36% | 1012 hPa | 0 mm | - | - | - |
| 1777139715 | 32.78° C | 36% | 1011.9 hPa | 0 mm | - | - | - |
| 1777139415 | 32.78° C | 36% | 1011.9 hPa | 0 mm | - | - | - |
| 1777139111 | 32.22° C | 36% | 1012.1 hPa | 0 mm | - | - | - |
| 1777138809 | 31.67° C | 38% | 1012.1 hPa | 0 mm | - | - | - |
| 1777138504 | 31.67° C | 39% | 1012.2 hPa | 0 mm | - | - | - |
| 1777138200 | 31.11° C | 39% | 1012.5 hPa | 0 mm | - | - | - |
| 1777137896 | 30.56° C | 40% | 1012.4 hPa | 0 mm | - | - | - |
| 1777137592 | 31.11° C | 40% | 1012.4 hPa | 0 mm | - | - | - |
| 1777137290 | 31.67° C | 39% | 1012.6 hPa | 0 mm | - | - | - |
| 1777136989 | 32.22° C | 40% | 1012.5 hPa | 0 mm | - | - | - |
| 1777136683 | 32.22° C | 39% | 1012.8 hPa | 0 mm | - | - | - |
| 1777136381 | 31.67° C | 39% | 1012.8 hPa | 0 mm | - | - | - |
| 1777136078 | 31.67° C | 38% | 1012.9 hPa | 0 mm | - | - | - |
| 1777135774 | 31.11° C | 39% | 1012.9 hPa | 0 mm | - | - | - |
| 1777135470 | 31.11° C | 40% | 1012.9 hPa | 0 mm | - | - | - |
| 1777135166 | 30.56° C | 41% | 1013 hPa | 0 mm | - | - | - |
| 1777134864 | 30.56° C | 42% | 1012.9 hPa | 0 mm | - | - | - |
| 1777134560 | 31.11° C | 40% | 1013 hPa | 0 mm | - | - | - |
| 1777134257 | 31.67° C | 40% | 1013 hPa | 0 mm | - | - | - |
* Rain latest hour (hover to see other rain measurements)
** Current wind speed in m/s (hover to see current wind gust speed)